ALK116 VCBI-VRMM

Flight info

Callsign ALK116
Flight time 1h 9m
Altitude 32000
Route LALU1D/22 LALUM1D TELIG M512 HOKEY HOKEY1A
Aircraft A320/M-SDE3FGHIRWY/LB1

Departure

Time 2026-04-29 10:02
Airport Bandaranaike International Colombo Airport (VCBI)

Arrival

Time 2026-04-29 11:11
Airport Velana International Airport (VRMM)
Time Latitude Longitude Altitude Speed Heading
2026-04-29 09:23 7.17617 79.88418 28 ft 0 kts 37°
2026-04-29 09:50 7.17612 79.88414 55 ft 4 kts 39°
2026-04-29 09:51 7.17592 79.88396 27 ft 4 kts 48°
2026-04-29 09:51 7.17574 79.88375 27 ft 4 kts 44°
2026-04-29 09:51 7.17558 79.88364 27 ft 3 kts 335°
2026-04-29 09:51 7.17538 79.88375 27 ft 4 kts 320°
2026-04-29 09:52 7.17520 79.88394 27 ft 4 kts 306°
2026-04-29 09:52 7.17505 79.88415 27 ft 2 kts 307°
2026-04-29 09:52 7.17504 79.88416 27 ft 0 kts 307°
2026-04-29 09:54 7.17507 79.88412 27 ft 2 kts 307°
2026-04-29 09:55 7.17518 79.88398 27 ft 4 kts 307°
2026-04-29 09:55 7.17537 79.88372 27 ft 6 kts 307°
2026-04-29 09:55 7.17564 79.88336 27 ft 7 kts 307°
2026-04-29 09:55 7.17599 79.88289 27 ft 9 kts 307°
2026-04-29 09:56 7.17655 79.88255 28 ft 10 kts
2026-04-29 09:56 7.17717 79.88297 28 ft 12 kts 37°
2026-04-29 09:56 7.17787 79.88351 28 ft 13 kts 37°
2026-04-29 09:56 7.17867 79.88411 27 ft 15 kts 37°
2026-04-29 09:57 7.17955 79.88478 27 ft 17 kts 37°
2026-04-29 09:57 7.18052 79.88552 27 ft 18 kts 37°
2026-04-29 09:57 7.18158 79.88634 27 ft 20 kts 37°
2026-04-29 09:57 7.18282 79.88728 27 ft 25 kts 37°
2026-04-29 09:58 7.18432 79.88842 28 ft 29 kts 37°
2026-04-29 09:58 7.18602 79.88973 28 ft 33 kts 37°
2026-04-29 09:58 7.18793 79.89119 28 ft 36 kts 38°
2026-04-29 09:58 7.18997 79.89275 27 ft 37 kts 37°
2026-04-29 09:59 7.19161 79.89401 27 ft 20 kts 36°
2026-04-29 09:59 7.19223 79.89390 27 ft 0 kts 319°
2026-04-29 09:59 7.19234 79.89377 27 ft 5 kts 309°
2026-04-29 09:59 7.19265 79.89333 27 ft 10 kts 306°
2026-04-29 10:00 7.19275 79.89259 27 ft 13 kts 232°
2026-04-29 10:00 7.19227 79.89224 27 ft 0 kts 215°
2026-04-29 10:01 7.19226 79.89223 27 ft 1 kts 215°
2026-04-29 10:01 7.19104 79.89131 28 ft 54 kts 217°
2026-04-29 10:01 7.18643 79.88779 30 ft 110 kts 217°
2026-04-29 10:01 7.17905 79.88215 30 ft 154 kts 217°
2026-04-29 10:02 7.17009 79.87538 430 ft 162 kts 219°
2026-04-29 10:02 7.16114 79.86851 1004 ft 161 kts 216°
2026-04-29 10:02 7.15226 79.86168 1649 ft 160 kts 218°
2026-04-29 10:02 7.14315 79.85466 2003 ft 173 kts 217°
2026-04-29 10:03 7.13297 79.84682 2195 ft 196 kts 216°
2026-04-29 10:03 7.12151 79.83801 2406 ft 219 kts 216°
2026-04-29 10:03 7.11315 79.83159 2587 ft 235 kts 216°
2026-04-29 10:03 7.09957 79.82118 3054 ft 253 kts 217°
2026-04-29 10:04 7.08543 79.81033 3813 ft 258 kts 216°
2026-04-29 10:04 7.07104 79.79927 4572 ft 263 kts 216°
2026-04-29 10:04 7.05635 79.78799 5310 ft 267 kts 216°
2026-04-29 10:04 7.04147 79.77653 6089 ft 270 kts 216°
2026-04-29 10:05 7.02644 79.76496 6789 ft 275 kts 216°
2026-04-29 10:05 7.01110 79.75318 7492 ft 279 kts 216°
2026-04-29 10:05 6.99552 79.74121 8156 ft 285 kts 216°
2026-04-29 10:05 6.97965 79.72903 8925 ft 289 kts 216°
2026-04-29 10:06 6.96357 79.71666 9685 ft 294 kts 216°
2026-04-29 10:06 6.94720 79.70406 10254 ft 300 kts 216°
2026-04-29 10:06 6.93023 79.69105 10406 ft 322 kts 215°
2026-04-29 10:06 6.91157 79.67676 10649 ft 339 kts 216°
2026-04-29 10:07 6.89287 79.66241 11123 ft 345 kts 215°
2026-04-29 10:07 6.87545 79.64556 11645 ft 353 kts 230°
2026-04-29 10:07 6.86032 79.62590 12170 ft 357 kts 231°
2026-04-29 10:07 6.84518 79.60596 12733 ft 361 kts 232°
2026-04-29 10:08 6.82991 79.58567 13293 ft 365 kts 231°
2026-04-29 10:08 6.81438 79.56526 13815 ft 368 kts 231°
2026-04-29 10:08 6.79861 79.54478 14302 ft 372 kts 230°
2026-04-29 10:08 6.78257 79.52423 14816 ft 374 kts 230°
2026-04-29 10:09 6.76638 79.50362 15329 ft 376 kts 230°
2026-04-29 10:09 6.75000 79.48288 15828 ft 379 kts 230°
2026-04-29 10:09 6.73358 79.46210 16330 ft 381 kts 230°
2026-04-29 10:09 6.71726 79.44145 16844 ft 383 kts 230°
2026-04-29 10:10 6.70063 79.42036 17357 ft 385 kts 230°
2026-04-29 10:10 6.68392 79.39917 17851 ft 388 kts 230°
2026-04-29 10:10 6.66710 79.37783 18315 ft 391 kts 230°
2026-04-29 10:10 6.65013 79.35631 18743 ft 393 kts 230°
2026-04-29 10:11 6.63310 79.33470 19170 ft 396 kts 230°
2026-04-29 10:11 6.61591 79.31287 19613 ft 398 kts 230°
2026-04-29 10:11 6.59874 79.29103 20037 ft 401 kts 230°
2026-04-29 10:11 6.58133 79.26891 20472 ft 404 kts 230°
2026-04-29 10:12 6.56383 79.24666 20907 ft 406 kts 230°
2026-04-29 10:12 6.54625 79.22431 21333 ft 409 kts 230°
2026-04-29 10:12 6.52855 79.20182 21757 ft 412 kts 230°
2026-04-29 10:12 6.51068 79.17914 22179 ft 415 kts 230°
2026-04-29 10:13 6.49264 79.15633 22598 ft 417 kts 230°
2026-04-29 10:13 6.47451 79.13340 23005 ft 420 kts 230°
2026-04-29 10:13 6.45648 79.11058 23397 ft 423 kts 230°
2026-04-29 10:13 6.43817 79.08739 23725 ft 425 kts 230°
2026-04-29 10:14 6.41971 79.06396 24056 ft 427 kts 230°
2026-04-29 10:14 6.40117 79.04043 24391 ft 429 kts 230°
2026-04-29 10:14 6.38262 79.01689 24720 ft 431 kts 230°
2026-04-29 10:14 6.36397 78.99325 25041 ft 432 kts 230°
2026-04-29 10:15 6.34523 78.96950 25363 ft 434 kts 230°
2026-04-29 10:15 6.32640 78.94566 25670 ft 436 kts 230°
2026-04-29 10:15 6.30748 78.92171 25980 ft 438 kts 230°
2026-04-29 10:15 6.28903 78.89729 26280 ft 441 kts 235°
2026-04-29 10:16 6.27415 78.87010 26572 ft 444 kts 244°
2026-04-29 10:16 6.26133 78.84211 26853 ft 446 kts 244°
2026-04-29 10:16 6.24832 78.81375 27140 ft 448 kts 244°
2026-04-29 10:16 6.23518 78.78518 27419 ft 450 kts 244°
2026-04-29 10:17 6.22208 78.75675 27701 ft 451 kts 244°
2026-04-29 10:17 6.20877 78.72782 27981 ft 453 kts 244°
2026-04-29 10:17 6.19552 78.69900 28261 ft 455 kts 244°
2026-04-29 10:17 6.18221 78.67014 28541 ft 456 kts 244°
2026-04-29 10:18 6.16882 78.64112 28821 ft 458 kts 244°
2026-04-29 10:18 6.15537 78.61202 29098 ft 460 kts 244°
2026-04-29 10:18 6.14136 78.58312 29376 ft 461 kts 239°
2026-04-29 10:18 6.12368 78.55626 29648 ft 461 kts 230°
2026-04-29 10:19 6.10363 78.53098 29916 ft 463 kts 230°
2026-04-29 10:19 6.08350 78.50569 30146 ft 464 kts 230°
2026-04-29 10:19 6.06327 78.48027 30402 ft 465 kts 230°
2026-04-29 10:19 6.04341 78.45529 30735 ft 463 kts 230°
2026-04-29 10:20 6.02330 78.43001 31077 ft 462 kts 230°
2026-04-29 10:20 6.00322 78.40474 31421 ft 461 kts 230°
2026-04-29 10:20 5.98321 78.37954 31732 ft 461 kts 230°
2026-04-29 10:20 5.96324 78.35435 31827 ft 461 kts 230°
2026-04-29 10:21 5.92374 78.30438 31851 ft 450 kts 230°
2026-04-29 10:21 5.88478 78.25534 31852 ft 447 kts 230°
2026-04-29 10:22 5.84592 78.20659 31849 ft 447 kts 230°
2026-04-29 10:22 5.80729 78.15811 31852 ft 447 kts 230°
2026-04-29 10:23 5.76851 78.10926 31853 ft 447 kts 230°
2026-04-29 10:23 5.72968 78.06034 31857 ft 447 kts 230°
2026-04-29 10:24 5.69169 78.01075 31856 ft 449 kts 237°
2026-04-29 10:24 5.66736 77.95302 31860 ft 451 kts 252°
2026-04-29 10:25 5.64919 77.89272 31865 ft 451 kts 251°
2026-04-29 10:25 5.63095 77.83299 31871 ft 450 kts 251°
2026-04-29 10:26 5.61264 77.77294 31868 ft 450 kts 251°
2026-04-29 10:26 5.59441 77.71287 31871 ft 449 kts 251°
2026-04-29 10:27 5.56694 77.62283 31865 ft 449 kts 251°
2026-04-29 10:28 5.54865 77.56283 31861 ft 450 kts 251°
2026-04-29 10:28 5.53030 77.50282 31867 ft 450 kts 251°
2026-04-29 10:29 5.51200 77.44272 31867 ft 450 kts 251°
2026-04-29 10:29 5.49370 77.38263 31863 ft 450 kts 251°
2026-04-29 10:30 5.47549 77.32292 31865 ft 450 kts 251°
2026-04-29 10:30 5.45711 77.26285 31863 ft 450 kts 251°
2026-04-29 10:31 5.43877 77.20278 31865 ft 450 kts 251°
2026-04-29 10:31 5.42039 77.14261 31861 ft 451 kts 251°
2026-04-29 10:32 5.40200 77.08247 31860 ft 451 kts 251°
2026-04-29 10:32 5.38356 77.02229 31862 ft 451 kts 251°
2026-04-29 10:33 5.36521 76.96209 31865 ft 451 kts 251°
2026-04-29 10:33 5.34688 76.90197 31868 ft 451 kts 251°
2026-04-29 10:34 5.32847 76.84179 31867 ft 451 kts 251°
2026-04-29 10:34 5.31015 76.78195 31866 ft 451 kts 251°
2026-04-29 10:35 5.29171 76.72170 31860 ft 451 kts 251°
2026-04-29 10:35 5.27332 76.66153 31864 ft 451 kts 251°
2026-04-29 10:36 5.25486 76.60133 31869 ft 451 kts 251°
2026-04-29 10:36 5.23631 76.54113 31872 ft 451 kts 251°
2026-04-29 10:37 5.21795 76.48135 31865 ft 451 kts 251°
2026-04-29 10:37 5.19950 76.42109 31867 ft 451 kts 252°
2026-04-29 10:38 5.18107 76.36080 31866 ft 451 kts 251°
2026-04-29 10:38 5.16264 76.30097 31868 ft 451 kts 251°
2026-04-29 10:39 5.14419 76.24095 31870 ft 450 kts 251°
2026-04-29 10:39 5.12572 76.18079 31871 ft 450 kts 251°
2026-04-29 10:40 5.10719 76.12075 31866 ft 450 kts 251°
2026-04-29 10:40 5.08883 76.06102 31862 ft 450 kts 251°
2026-04-29 10:41 5.07041 76.00088 31863 ft 450 kts 251°
2026-04-29 10:41 5.05195 75.94087 31862 ft 450 kts 251°
2026-04-29 10:42 5.03347 75.88076 31867 ft 450 kts 251°
2026-04-29 10:42 5.01506 75.82063 31867 ft 450 kts 251°
2026-04-29 10:43 4.99662 75.76055 31867 ft 451 kts 251°
2026-04-29 10:43 4.97814 75.70045 31860 ft 451 kts 251°
2026-04-29 10:44 4.95805 75.64122 31858 ft 450 kts 243°
2026-04-29 10:44 4.92752 75.58660 31859 ft 449 kts 238°
2026-04-29 10:45 4.89636 75.53224 31790 ft 446 kts 238°
2026-04-29 10:45 4.88112 75.50553 31548 ft 437 kts 238°
2026-04-29 10:45 4.86616 75.47923 31312 ft 430 kts 238°
2026-04-29 10:45 4.85139 75.45331 31079 ft 427 kts 238°
2026-04-29 10:46 4.83665 75.42750 30848 ft 425 kts 238°
2026-04-29 10:46 4.82195 75.40184 30621 ft 423 kts 238°
2026-04-29 10:46 4.80731 75.37632 30396 ft 421 kts 238°
2026-04-29 10:46 4.79275 75.35091 30165 ft 420 kts 238°
2026-04-29 10:47 4.77824 75.32559 29940 ft 418 kts 238°
2026-04-29 10:47 4.76866 75.30886 29772 ft 417 kts 238°
2026-04-29 10:47 4.74957 75.27553 29422 ft 415 kts 238°
2026-04-29 10:47 4.73520 75.25046 29160 ft 414 kts 238°
2026-04-29 10:48 4.72087 75.22544 28898 ft 412 kts 238°
2026-04-29 10:48 4.71141 75.20894 28732 ft 411 kts 238°
2026-04-29 10:48 4.69719 75.18415 28473 ft 409 kts 238°
2026-04-29 10:48 4.68303 75.15947 28224 ft 408 kts 238°
2026-04-29 10:49 4.66892 75.13483 27971 ft 407 kts 238°
2026-04-29 10:49 4.65488 75.11027 27723 ft 405 kts 238°
2026-04-29 10:49 4.64089 75.08580 27476 ft 404 kts 238°
2026-04-29 10:49 4.62691 75.06142 27247 ft 403 kts 238°
2026-04-29 10:50 4.61293 75.03706 26999 ft 403 kts 238°
2026-04-29 10:50 4.59899 75.01279 26758 ft 402 kts 238°
2026-04-29 10:50 4.58506 74.98853 26520 ft 401 kts 238°
2026-04-29 10:50 4.57120 74.96437 26282 ft 399 kts 238°
2026-04-29 10:51 4.55741 74.94026 26047 ft 398 kts 239°
2026-04-29 10:51 4.54367 74.91619 25815 ft 397 kts 239°
2026-04-29 10:51 4.53003 74.89238 25594 ft 396 kts 238°
2026-04-29 10:51 4.51624 74.86835 25355 ft 395 kts 238°
2026-04-29 10:52 4.50258 74.84455 25130 ft 393 kts 238°
2026-04-29 10:52 4.48897 74.82084 24906 ft 392 kts 238°
2026-04-29 10:52 4.47533 74.79706 24680 ft 391 kts 238°
2026-04-29 10:52 4.46196 74.77371 24460 ft 390 kts 238°
2026-04-29 10:53 4.44844 74.75015 24238 ft 389 kts 238°
2026-04-29 10:53 4.43496 74.72668 24028 ft 388 kts 238°
2026-04-29 10:53 4.42149 74.70323 23810 ft 387 kts 238°
2026-04-29 10:53 4.40808 74.67985 23591 ft 386 kts 238°
2026-04-29 10:54 4.39470 74.65650 23372 ft 385 kts 238°
2026-04-29 10:54 4.38139 74.63328 23114 ft 384 kts 238°
2026-04-29 10:54 4.36806 74.61005 22857 ft 382 kts 238°
2026-04-29 10:54 4.35482 74.58702 22602 ft 381 kts 238°
2026-04-29 10:55 4.34165 74.56410 22349 ft 379 kts 238°
2026-04-29 10:55 4.32870 74.54156 22105 ft 377 kts 238°
2026-04-29 10:55 4.31561 74.51880 21851 ft 375 kts 238°
2026-04-29 10:55 4.30260 74.49617 21606 ft 374 kts 238°
2026-04-29 10:56 4.28972 74.47372 21299 ft 369 kts 238°
2026-04-29 10:56 4.27695 74.45146 20884 ft 368 kts 238°
2026-04-29 10:56 4.26419 74.42924 20459 ft 367 kts 238°
2026-04-29 10:56 4.25165 74.40740 20048 ft 366 kts 238°
2026-04-29 10:57 4.23892 74.38524 19625 ft 366 kts 238°
2026-04-29 10:57 4.22625 74.36318 19203 ft 365 kts 238°
2026-04-29 10:57 4.21358 74.34117 18778 ft 365 kts 238°
2026-04-29 10:57 4.20089 74.31910 18361 ft 364 kts 238°
2026-04-29 10:58 4.18829 74.29716 17909 ft 364 kts 238°
2026-04-29 10:58 4.17565 74.27518 17476 ft 362 kts 238°
2026-04-29 10:58 4.16311 74.25338 17061 ft 359 kts 238°
2026-04-29 10:58 4.15085 74.23207 16653 ft 357 kts 238°
2026-04-29 10:59 4.13846 74.21050 16234 ft 355 kts 238°
2026-04-29 10:59 4.12613 74.18902 15828 ft 353 kts 238°
2026-04-29 10:59 4.11384 74.16768 15417 ft 351 kts 238°
2026-04-29 10:59 4.10163 74.14648 15011 ft 349 kts 238°
2026-04-29 11:00 4.08964 74.12566 14607 ft 348 kts 238°
2026-04-29 11:00 4.07744 74.10445 14201 ft 346 kts 238°
2026-04-29 11:00 4.06559 74.08387 13799 ft 345 kts 238°
2026-04-29 11:00 4.05360 74.06303 13362 ft 344 kts 238°
2026-04-29 11:01 4.04166 74.04230 12952 ft 341 kts 238°
2026-04-29 11:01 4.02988 74.02182 12544 ft 339 kts 238°
2026-04-29 11:01 4.01817 74.00144 12137 ft 336 kts 238°
2026-04-29 11:01 4.00652 73.98116 11735 ft 334 kts 238°
2026-04-29 11:02 3.99494 73.96100 11340 ft 333 kts 239°
2026-04-29 11:02 3.98338 73.94092 10940 ft 331 kts 238°
2026-04-29 11:02 3.97205 73.92122 10541 ft 330 kts 238°
2026-04-29 11:02 3.96045 73.90105 10167 ft 328 kts 240°
2026-04-29 11:03 3.95196 73.88058 10053 ft 318 kts 255°
2026-04-29 11:03 3.94913 73.85889 9877 ft 311 kts 269°
2026-04-29 11:03 3.94912 73.83733 9565 ft 308 kts 269°
2026-04-29 11:03 3.94911 73.81594 9238 ft 306 kts 269°
2026-04-29 11:04 3.94911 73.79474 8921 ft 303 kts 269°
2026-04-29 11:04 3.94913 73.77363 8588 ft 302 kts 270°
2026-04-29 11:04 3.94918 73.75274 8294 ft 298 kts 270°
2026-04-29 11:04 3.94923 73.73205 7983 ft 296 kts 270°
2026-04-29 11:05 3.94926 73.71181 7685 ft 293 kts 270°
2026-04-29 11:05 3.94926 73.69142 7378 ft 291 kts 270°
2026-04-29 11:05 3.94924 73.67128 7087 ft 288 kts 270°
2026-04-29 11:05 3.94920 73.65133 6782 ft 286 kts 270°
2026-04-29 11:06 3.94917 73.63150 6520 ft 282 kts 270°
2026-04-29 11:06 3.94914 73.61195 6214 ft 280 kts 270°
2026-04-29 11:06 3.94909 73.59233 5633 ft 287 kts 270°
2026-04-29 11:06 3.94919 73.57186 4968 ft 297 kts 273°
2026-04-29 11:07 3.95470 73.55197 4319 ft 299 kts 301°
2026-04-29 11:07 3.96869 73.53782 3997 ft 284 kts 327°
2026-04-29 11:07 3.98707 73.53146 3690 ft 273 kts 353°
2026-04-29 11:07 4.00546 73.53108 3375 ft 263 kts 358°
2026-04-29 11:08 4.02347 73.53116 3048 ft 253 kts 358°
2026-04-29 11:08 4.04081 73.53117 2742 ft 247 kts 358°
2026-04-29 11:08 4.05799 73.53115 2417 ft 246 kts 358°
2026-04-29 11:08 4.07499 73.53113 2095 ft 240 kts 358°
2026-04-29 11:09 4.09120 73.53112 1796 ft 226 kts 357°
2026-04-29 11:09 4.10642 73.53111 1516 ft 210 kts 357°
2026-04-29 11:09 4.12022 73.53111 1274 ft 189 kts 358°
2026-04-29 11:09 4.13276 73.53110 1019 ft 170 kts 355°
2026-04-29 11:10 4.14410 73.53109 814 ft 158 kts 355°
2026-04-29 11:10 4.15497 73.53106 636 ft 154 kts 356°
2026-04-29 11:10 4.16539 73.53109 428 ft 150 kts 358°
2026-04-29 11:10 4.17608 73.53124 248 ft 153 kts 357°
2026-04-29 11:11 4.18686 73.53100 52 ft 155 kts 357°
2026-04-29 11:11 4.19686 73.53107 16 ft 129 kts 355°
2026-04-29 11:11 4.20421 73.53099 12 ft 71 kts
2026-04-29 11:11 4.20773 73.53101 12 ft 43 kts
2026-04-29 11:12 4.20914 73.53084 12 ft 13 kts 315°
2026-04-29 11:12 4.20927 73.52990 12 ft 15 kts 268°
2026-04-29 11:12 4.20873 73.52906 14 ft 17 kts 198°
2026-04-29 11:12 4.20751 73.52889 12 ft 19 kts 179°
2026-04-29 11:13 4.20613 73.52892 12 ft 21 kts 179°
2026-04-29 11:13 4.20462 73.52893 12 ft 23 kts 180°
2026-04-29 11:13 4.20297 73.52897 12 ft 24 kts 178°
2026-04-29 11:13 4.20124 73.52898 12 ft 26 kts 178°
2026-04-29 11:14 4.19937 73.52903 12 ft 28 kts 180°
2026-04-29 11:14 4.19741 73.52906 12 ft 29 kts 179°
2026-04-29 11:14 4.19536 73.52909 12 ft 30 kts 179°
2026-04-29 11:14 4.19323 73.52913 12 ft 31 kts 179°
2026-04-29 11:15 4.19109 73.52916 14 ft 24 kts 179°
2026-04-29 11:15 4.18975 73.52918 12 ft 15 kts 180°
2026-04-29 11:15 4.18935 73.52896 12 ft 6 kts 241°
2026-04-29 11:15 4.18922 73.52849 12 ft 8 kts 261°
2026-04-29 11:16 4.18921 73.52803 12 ft 0 kts 269°
2026-04-29 11:16 4.18920 73.52793 12 ft 0 kts 269°
2026-04-29 11:16 4.18920 73.52788 12 ft 0 kts 269°
2026-04-29 11:16 4.18920 73.52787 12 ft 0 kts 269°